| time (UTC) | temp C | wind direction | speed KPH | gust KPH | rain 1hr cm | rain 24hr cm | rain mn cm | humidity % | barometer mb |
| 20260506134749 | 37 | 180 | 0.0 | 30.6 | 0.00 | 0.00 | 0.00 | 18 | 1005.9 |
| 20260506133242 | 37 | 90 | 1.6 | 24.1 | 0.00 | 0.00 | 0.00 | 18 | 1006.0 |
| 20260506132237 | 38 | 225 | 0.0 | 22.5 | 0.00 | 0.00 | 0.00 | 18 | 1006.2 |
| 20260506131734 | 42 | 315 | 0.0 | 9.7 | 0.00 | 0.00 | 0.00 | 18 | 1006.3 |
| 20260506130730 | 40 | 180 | 1.6 | 16.1 | 0.00 | 0.00 | 0.00 | 19 | 1006.2 |
| 20260506130227 | 36 | 45 | 0.0 | 25.7 | 0.00 | 0.00 | 0.00 | 20 | 1006.3 |
| 20260506125725 | 37 | 270 | 14.5 | 19.3 | 0.00 | 0.00 | 0.00 | 20 | 1006.4 |
| 20260506125222 | 39 | 225 | 0.0 | 22.5 | 0.00 | 0.00 | 0.00 | 20 | 1006.5 |
| 20260506124218 | 35 | 315 | 0.0 | 27.4 | 0.00 | 0.00 | 0.00 | 21 | 1006.5 |
| 20260506123715 | 35 | 315 | 0.0 | 8.0 | 0.00 | 0.00 | 0.00 | 21 | 1006.6 |
| 20260506123213 | 35 | 225 | 25.7 | 27.4 | 0.00 | 0.00 | 0.00 | 20 | 1006.6 |
| 20260506122710 | 36 | 315 | 0.0 | 19.3 | 0.00 | 0.00 | 0.00 | 20 | 1006.7 |
| 20260506122208 | 38 | 1.6 | 45.1 | 0.00 | 0.00 | 0.00 | 20 | 1006.8 | |
| 20260506121203 | 37 | 45 | 1.6 | 22.5 | 0.00 | 0.00 | 0.00 | 21 | 1006.8 |
| 20260506120701 | 36 | 315 | 0.0 | 11.3 | 0.00 | 0.00 | 0.00 | 21 | 1006.8 |
| 20260506120158 | 36 | 315 | 1.6 | 27.4 | 0.00 | 0.00 | 0.00 | 22 | 1006.9 |
| 20260506115656 | 37 | 45 | 1.6 | 12.9 | 0.00 | 0.00 | 0.00 | 21 | 1007.1 |
| 20260506115153 | 38 | 45 | 1.6 | 22.5 | 0.00 | 0.00 | 0.00 | 21 | 1007.2 |
| 20260506114651 | 38 | 225 | 0.0 | 1.6 | 0.00 | 0.00 | 0.00 | 22 | 1007.2 |
| 20260506114149 | 38 | 45 | 1.6 | 24.1 | 0.00 | 0.00 | 0.00 | 23 | 1007.3 |
| 20260506113646 | 37 | 315 | 0.0 | 3.2 | 0.00 | 0.00 | 0.00 | 24 | 1007.4 |
| 20260506113144 | 35 | 225 | 1.6 | 29.0 | 0.00 | 0.00 | 0.00 | 22 | 1007.4 |
| 20260506112641 | 36 | 180 | 0.0 | 27.4 | 0.00 | 0.00 | 0.00 | 24 | 1007.6 |
| 20260506112139 | 35 | 270 | 1.6 | 22.5 | 0.00 | 0.00 | 0.00 | 24 | 1007.6 |
| 20260506111637 | 37 | 315 | 1.6 | 11.3 | 0.00 | 0.00 | 0.00 | 23 | 1007.7 |
| 20260506111134 | 36 | 180 | 0.0 | 29.0 | 0.00 | 0.00 | 0.00 | 24 | 1007.7 |
| 20260506110632 | 36 | 225 | 1.6 | 27.4 | 0.00 | 0.00 | 0.00 | 24 | 1007.8 |
| 20260506110129 | 36 | 45 | 0.0 | 24.1 | 0.00 | 0.00 | 0.00 | 25 | 1008.0 |
| 20260506105125 | 35 | 225 | 0.0 | 29.0 | 0.00 | 0.00 | 0.00 | 26 | 1008.1 |
| 20260506104622 | 36 | 225 | 0.0 | 25.7 | 0.00 | 0.00 | 0.00 | 26 | 1008.2 |
| 20260506104120 | 35 | 315 | 0.0 | 25.7 | 0.00 | 0.00 | 0.00 | 26 | 1008.2 |
| 20260506103617 | 35 | 45 | 0.0 | 6.4 | 0.00 | 0.00 | 0.00 | 26 | 1008.3 |
| 20260506103115 | 35 | 45 | 0.0 | 25.7 | 0.00 | 0.00 | 0.00 | 26 | 1008.5 |
| 20260506102612 | 36 | 180 | 1.6 | 27.4 | 0.00 | 0.00 | 0.00 | 26 | 1008.5 |
| 20260506100603 | 35 | 0 | 0.0 | 19.3 | 0.00 | 0.00 | 0.00 | 28 | 1008.9 |
| 20260506100100 | 33 | 225 | 0.0 | 27.4 | 0.00 | 0.00 | 0.00 | 29 | 1008.9 |
| 20260506095558 | 31 | 0 | 0.0 | 20.9 | 0.00 | 0.00 | 0.00 | 30 | 1008.8 |
| 20260506095056 | 33 | 45 | 0.0 | 9.7 | 0.00 | 0.00 | 0.00 | 29 | 1008.9 |
| 20260506094051 | 33 | 45 | 0.0 | 3.2 | 0.00 | 0.00 | 0.00 | 30 | 1009.1 |
| 20260506093548 | 31 | 225 | 0.0 | 12.9 | 0.00 | 0.00 | 0.00 | 30 | 1009.1 |
| 20260506093046 | 34 | 270 | 0.0 | 6.4 | 0.00 | 0.00 | 0.00 | 29 | 1009.2 |
| 20260506092041 | 34 | 225 | 0.0 | 3.2 | 0.00 | 0.00 | 0.00 | 32 | 1009.4 |
| 20260506091539 | 34 | 180 | 0.0 | 1.6 | 0.00 | 0.00 | 0.00 | 32 | 1009.4 |
| 20260506091036 | 33 | 225 | 1.6 | 11.3 | 0.00 | 0.00 | 0.00 | 32 | 1009.5 |
| 20260506090534 | 33 | 225 | 0.0 | 1.6 | 0.00 | 0.00 | 0.00 | 34 | 1009.6 |
| 20260506090031 | 33 | 135 | 0.0 | 19.3 | 0.00 | 0.00 | 0.00 | 34 | 1009.6 |
| 20260506085529 | 33 | 180 | 1.6 | 20.9 | 0.00 | 0.00 | 0.00 | 35 | 1009.8 |
| 20260506085027 | 32 | 270 | 0.0 | 29.0 | 0.00 | 0.00 | 0.00 | 37 | 1009.7 |
| 20260506084525 | 30 | 180 | 0.0 | 29.0 | 0.00 | 0.00 | 0.00 | 38 | 1009.6 |
| 20260506084022 | 28 | 1.6 | 8.0 | 0.00 | 0.00 | 0.00 | 38 | 1009.7 | |
| 20260506083519 | 27 | 135 | 3.2 | 27.4 | 0.00 | 0.00 | 0.00 | 38 | 1009.6 |
| 20260506083017 | 27 | 0.0 | 35.4 | 0.00 | 0.00 | 0.00 | 38 | 1009.6 | |
| 20260506082515 | 27 | 135 | 1.6 | 16.1 | 0.00 | 0.00 | 0.00 | 39 | 1009.6 |
| 20260506082012 | 28 | 45 | 3.2 | 33.8 | 0.00 | 0.00 | 0.00 | 40 | 1009.8 |
| 20260506081510 | 27 | 45 | 0.0 | 27.4 | 0.00 | 0.00 | 0.00 | 41 | 1009.8 |
| 20260506081007 | 28 | 315 | 0.0 | 35.4 | 0.00 | 0.00 | 0.00 | 41 | 1009.9 |
| 20260506080505 | 27 | 135 | 0.0 | 37.0 | 0.00 | 0.00 | 0.00 | 41 | 1009.9 |
| 20260506072948 | 23 | 1.6 | 22.5 | 0.00 | 0.00 | 0.00 | 44 | 1010.3 | |
| 20260506072445 | 23 | 45 | 0.0 | 24.1 | 0.00 | 0.00 | 0.00 | 44 | 1010.3 |
| 20260506071943 | 23 | 45 | 0.0 | 17.7 | 0.00 | 0.00 | 0.00 | 45 | 1010.4 |
| 20260506071441 | 23 | 45 | 0.0 | 6.4 | 0.00 | 0.00 | 0.00 | 45 | 1010.4 |
| 20260506070938 | 23 | 45 | 0.0 | 35.4 | 0.00 | 0.00 | 0.00 | 45 | 1010.4 |
| 20260506070436 | 23 | 0 | 0.0 | 37.0 | 0.00 | 0.00 | 0.00 | 45 | 1010.5 |
| 20260506062416 | 23 | 270 | 0.0 | 32.2 | 0.00 | 0.00 | 0.00 | 47 | 1011.0 |
| 20260506061914 | 23 | 180 | 0.0 | 30.6 | 0.00 | 0.00 | 0.00 | 49 | 1010.9 |
| 20260506061412 | 22 | 180 | 0.0 | 3.2 | 0.00 | 0.00 | 0.00 | 49 | 1010.9 |
| 20260506060909 | 22 | 180 | 0.0 | 1.6 | 0.00 | 0.00 | 0.00 | 49 | 1010.9 |
| 20260506060407 | 23 | 180 | 0.0 | 0.0 | 0.00 | 0.00 | 0.00 | 49 | 1010.9 |
| 20260506051343 | 18 | 315 | 0.0 | 11.3 | 0.00 | 0.00 | 0.00 | 53 | 1011.2 |
| 20260506050840 | 18 | 225 | 0.0 | 3.2 | 0.00 | 0.00 | 0.00 | 53 | 1011.1 |
| 20260506050338 | 18 | 225 | 0.0 | 37.0 | 0.00 | 0.00 | 0.00 | 52 | 1011.1 |
| 20260506044831 | 18 | 180 | 0.0 | 1.6 | 0.00 | 0.00 | 0.00 | 52 | 1011.0 |
| 20260506044328 | 18 | 180 | 0.0 | 33.8 | 0.00 | 0.00 | 0.00 | 52 | 1011.0 |
| 20260506043826 | 18 | 180 | 0.0 | 38.6 | 0.00 | 0.00 | 0.00 | 53 | 1010.9 |
| 20260506042319 | 17 | 180 | 1.6 | 35.4 | 0.00 | 0.00 | 0.00 | 53 | 1010.7 |
| 20260506041816 | 17 | 225 | 1.6 | 3.2 | 0.00 | 0.00 | 0.00 | 52 | 1010.6 |
| 20260506041314 | 17 | 180 | 1.6 | 22.5 | 0.00 | 0.00 | 0.00 | 52 | 1010.6 |
| 20260506040811 | 17 | 225 | 0.0 | 35.4 | 0.00 | 0.00 | 0.00 | 52 | 1010.7 |
| 20260506040309 | 17 | 180 | 1.6 | 22.5 | 0.00 | 0.00 | 0.00 | 52 | 1010.6 |
| 20260506035807 | 17 | 225 | 1.6 | 3.2 | 0.00 | 0.00 | 0.00 | 53 | 1010.5 |
| 20260506035306 | 17 | 180 | 0.0 | 37.0 | 0.00 | 0.00 | 0.00 | 52 | 1010.5 |
| 20260506034802 | 17 | 180 | 0.0 | 11.3 | 0.00 | 0.00 | 0.00 | 52 | 1010.4 |
| 20260506034259 | 17 | 180 | 0.0 | 38.6 | 0.00 | 0.00 | 0.00 | 52 | 1010.4 |
| 20260506033757 | 17 | 180 | 1.6 | 40.2 | 0.00 | 0.00 | 0.00 | 52 | 1010.4 |
| 20260506033254 | 17 | 225 | 3.2 | 41.8 | 0.00 | 0.00 | 0.00 | 52 | 1010.3 |
| 20260506032752 | 17 | 225 | 1.6 | 38.6 | 0.00 | 0.00 | 0.00 | 52 | 1010.3 |
| 20260506032250 | 17 | 180 | 3.2 | 41.8 | 0.00 | 0.00 | 0.00 | 52 | 1010.3 |
| 20260506031245 | 18 | 225 | 0.0 | 41.8 | 0.00 | 0.00 | 0.00 | 52 | 1010.3 |
| 20260506030742 | 18 | 180 | 1.6 | 41.8 | 0.00 | 0.00 | 0.00 | 52 | 1010.4 |
| 20260506030240 | 18 | 135 | 1.6 | 32.2 | 0.00 | 0.00 | 0.00 | 51 | 1010.3 |
| 20260506025738 | 18 | 225 | 4.8 | 33.8 | 0.00 | 0.00 | 0.00 | 51 | 1010.3 |
| 20260506025235 | 18 | 180 | 6.4 | 41.8 | 0.00 | 0.00 | 0.00 | 51 | 1010.4 |
| 20260506024733 | 18 | 270 | 1.6 | 43.5 | 0.00 | 0.00 | 0.00 | 51 | 1010.4 |
| 20260506024230 | 18 | 180 | 4.8 | 37.0 | 0.00 | 0.00 | 0.00 | 51 | 1010.5 |
| 20260506023728 | 18 | 225 | 30.6 | 40.2 | 0.00 | 0.00 | 0.00 | 51 | 1010.5 |
| 20260506023226 | 18 | 180 | 3.2 | 38.6 | 0.00 | 0.00 | 0.00 | 51 | 1010.5 |
| 20260506022723 | 18 | 225 | 3.2 | 32.2 | 0.00 | 0.00 | 0.00 | 51 | 1010.5 |
| 20260506022221 | 18 | 180 | 1.6 | 32.2 | 0.00 | 0.00 | 0.00 | 50 | 1010.5 |
| 20260506021718 | 18 | 180 | 1.6 | 38.6 | 0.00 | 0.00 | 0.00 | 50 | 1010.5 |
| 20260506021216 | 18 | 270 | 1.6 | 8.0 | 0.00 | 0.00 | 0.00 | 50 | 1010.5 |
| 20260506020713 | 18 | 180 | 4.8 | 38.6 | 0.00 | 0.00 | 0.00 | 50 | 1010.4 |
| 20260506020211 | 18 | 180 | 1.6 | 38.6 | 0.00 | 0.00 | 0.00 | 50 | 1010.4 |
| 20260506015709 | 18 | 225 | 1.6 | 32.2 | 0.00 | 0.00 | 0.00 | 50 | 1010.4 |
| 20260506015206 | 18 | 225 | 1.6 | 29.0 | 0.00 | 0.00 | 0.00 | 50 | 1010.3 |
| 20260506014704 | 18 | 225 | 1.6 | 40.2 | 0.00 | 0.00 | 0.00 | 49 | 1010.3 |
| 20260506014201 | 18 | 225 | 3.2 | 35.4 | 0.00 | 0.00 | 0.00 | 49 | 1010.3 |
| 20260506013659 | 18 | 225 | 1.6 | 38.6 | 0.00 | 0.00 | 0.00 | 49 | 1010.2 |
| 20260506013157 | 18 | 180 | 0.0 | 40.2 | 0.00 | 0.00 | 0.00 | 49 | 1010.2 |
| 20260506012654 | 18 | 180 | 3.2 | 41.8 | 0.00 | 0.00 | 0.00 | 49 | 1010.2 |
| 20260506012152 | 18 | 180 | 4.8 | 45.1 | 0.00 | 0.00 | 0.00 | 49 | 1010.0 |
| 20260506011147 | 18 | 225 | 3.2 | 38.6 | 0.00 | 0.00 | 0.00 | 48 | 1010.1 |
| 20260506010645 | 18 | 225 | 3.2 | 40.2 | 0.00 | 0.00 | 0.00 | 48 | 1009.9 |
| 20260506010142 | 19 | 180 | 4.8 | 38.6 | 0.00 | 0.00 | 0.00 | 48 | 1009.9 |
| 20260506005640 | 19 | 225 | 3.2 | 40.2 | 0.00 | 0.00 | 0.00 | 47 | 1009.9 |
| 20260506005137 | 19 | 180 | 0.0 | 53.1 | 0.00 | 0.00 | 0.00 | 47 | 1009.8 |
| 20260506004635 | 19 | 225 | 40.2 | 40.2 | 0.00 | 0.00 | 0.00 | 47 | 1009.7 |
| 20260506004133 | 19 | 180 | 8.0 | 41.8 | 0.00 | 0.00 | 0.00 | 47 | 1009.7 |
| 20260506003630 | 19 | 225 | 1.6 | 37.0 | 0.00 | 0.00 | 0.00 | 46 | 1009.7 |
| 20260506003128 | 19 | 180 | 25.7 | 41.8 | 0.00 | 0.00 | 0.00 | 46 | 1009.7 |
| 20260506002625 | 19 | 225 | 4.8 | 40.2 | 0.00 | 0.00 | 0.00 | 45 | 1009.7 |
| 20260506002123 | 19 | 180 | 3.2 | 40.2 | 0.00 | 0.00 | 0.00 | 45 | 1009.6 |
| 20260506001620 | 20 | 225 | 1.6 | 3.2 | 0.00 | 0.00 | 0.00 | 45 | 1009.6 |
| 20260506001118 | 20 | 270 | 0.0 | 33.8 | 0.00 | 0.00 | 0.00 | 45 | 1009.6 |
| 20260506000616 | 20 | 180 | 59.5 | 61.2 | 0.00 | 0.00 | 0.00 | 44 | 1009.4 |
| 20260506000113 | 20 | 180 | 1.6 | 38.6 | 0.00 | 0.00 | 0.00 | 44 | 1009.3 |
| 20260505235611 | 20 | 180 | 3.2 | 40.2 | 0.00 | 0.00 | 0.00 | 44 | 1009.2 |
| 20260505235108 | 20 | 180 | 1.6 | 33.8 | 0.00 | 0.00 | 0.00 | 44 | 1009.1 |
| 20260505234606 | 20 | 225 | 4.8 | 38.6 | 0.00 | 0.00 | 0.00 | 43 | 1009.0 |
| 20260505234104 | 20 | 180 | 0.0 | 40.2 | 0.00 | 0.00 | 0.00 | 43 | 1009.0 |
| 20260505233601 | 20 | 135 | 0.0 | 40.2 | 0.00 | 0.00 | 0.00 | 43 | 1008.9 |
| 20260505233059 | 20 | 225 | 6.4 | 40.2 | 0.00 | 0.00 | 0.00 | 43 | 1008.8 |
| 20260505232556 | 20 | 180 | 1.6 | 33.8 | 0.00 | 0.00 | 0.00 | 42 | 1008.8 |
| 20260505232054 | 20 | 180 | 0.0 | 40.2 | 0.00 | 0.00 | 0.00 | 42 | 1008.8 |
| 20260505231551 | 20 | 225 | 3.2 | 24.1 | 0.00 | 0.00 | 0.00 | 42 | 1008.7 |
| 20260505231049 | 20 | 180 | 0.0 | 3.2 | 0.00 | 0.00 | 0.00 | 42 | 1008.7 |
| 20260505230547 | 20 | 180 | 1.6 | 22.5 | 0.00 | 0.00 | 0.00 | 42 | 1008.7 |
| 20260505230044 | 20 | 270 | 0.0 | 38.6 | 0.00 | 0.00 | 0.00 | 41 | 1008.6 |
| 20260505225542 | 20 | 225 | 1.6 | 38.6 | 0.00 | 0.00 | 0.00 | 41 | 1008.4 |
| 20260505225039 | 20 | 180 | 0.0 | 22.5 | 0.00 | 0.00 | 0.00 | 41 | 1008.4 |
| 20260505224537 | 20 | 225 | 1.6 | 40.2 | 0.00 | 0.00 | 0.00 | 41 | 1008.2 |
| 20260505224035 | 20 | 180 | 0.0 | 37.0 | 0.00 | 0.00 | 0.00 | 41 | 1008.2 |
| 20260505223532 | 20 | 180 | 0.0 | 3.2 | 0.00 | 0.00 | 0.00 | 41 | 1008.0 |
| 20260505223030 | 20 | 225 | 0.0 | 1.6 | 0.00 | 0.00 | 0.00 | 40 | 1007.9 |
| 20260505222527 | 20 | 225 | 0.0 | 1.6 | 0.00 | 0.00 | 0.00 | 40 | 1007.8 |
| 20260505222025 | 20 | 180 | 0.0 | 1.6 | 0.00 | 0.00 | 0.00 | 40 | 1007.8 |
| 20260505221523 | 20 | 180 | 0.0 | 4.8 | 0.00 | 0.00 | 0.00 | 40 | 1007.8 |
| 20260505221020 | 20 | 180 | 0.0 | 35.4 | 0.00 | 0.00 | 0.00 | 40 | 1007.8 |
| 20260505220518 | 20 | 180 | 0.0 | 38.6 | 0.00 | 0.00 | 0.00 | 39 | 1007.7 |
| 20260505220015 | 20 | 180 | 0.0 | 40.2 | 0.00 | 0.00 | 0.00 | 39 | 1007.6 |
| 20260505215513 | 21 | 180 | 0.0 | 35.4 | 0.00 | 0.00 | 0.00 | 39 | 1007.6 |
| 20260505215010 | 21 | 180 | 1.6 | 38.6 | 0.00 | 0.00 | 0.00 | 39 | 1007.6 |
| 20260505214508 | 21 | 180 | 1.6 | 59.5 | 0.00 | 0.00 | 0.00 | 39 | 1007.7 |
| 20260505214006 | 21 | 180 | 3.2 | 32.2 | 0.00 | 0.00 | 0.00 | 38 | 1007.7 |
| 20260505213503 | 21 | 180 | 3.2 | 69.2 | 0.00 | 0.00 | 0.00 | 38 | 1007.6 |
| 20260505213001 | 21 | 180 | 3.2 | 8.0 | 0.00 | 0.00 | 0.00 | 38 | 1007.5 |
| 20260505212458 | 21 | 225 | 1.6 | 38.6 | 0.00 | 0.00 | 0.00 | 38 | 1007.4 |
| 20260505211956 | 21 | 180 | 0.0 | 41.8 | 0.00 | 0.00 | 0.00 | 37 | 1007.4 |
| 20260505211454 | 21 | 225 | 4.8 | 38.6 | 0.00 | 0.00 | 0.00 | 37 | 1007.3 |
| 20260505210951 | 21 | 180 | 1.6 | 45.1 | 0.00 | 0.00 | 0.00 | 37 | 1007.1 |
| 20260505210449 | 21 | 270 | 1.6 | 40.2 | 0.00 | 0.00 | 0.00 | 37 | 1007.2 |
| 20260505205946 | 21 | 225 | 0.0 | 41.8 | 0.00 | 0.00 | 0.00 | 36 | 1007.1 |
| 20260505205444 | 21 | 180 | 0.0 | 40.2 | 0.00 | 0.00 | 0.00 | 36 | 1007.0 |
| 20260505204942 | 21 | 180 | 1.6 | 41.8 | 0.00 | 0.00 | 0.00 | 36 | 1007.0 |
| 20260505204439 | 21 | 225 | 3.2 | 30.6 | 0.00 | 0.00 | 0.00 | 36 | 1007.0 |
| 20260505203434 | 20 | 180 | 0.0 | 38.6 | 0.00 | 0.00 | 0.00 | 36 | 1006.8 |
| 20260505202932 | 20 | 180 | 1.6 | 37.0 | 0.00 | 0.00 | 0.00 | 36 | 1006.8 |
| 20260505202429 | 19 | 180 | 0.0 | 1.6 | 0.00 | 0.00 | 0.00 | 35 | 1006.7 |
| 20260505201927 | 19 | 180 | 0.0 | 30.6 | 0.00 | 0.00 | 0.00 | 35 | 1006.5 |
| 20260505201425 | 19 | 180 | 0.0 | 0.0 | 0.00 | 0.00 | 0.00 | 34 | 1006.4 |
| 20260505200922 | 20 | 180 | 0.0 | 1.6 | 0.00 | 0.00 | 0.00 | 34 | 1006.3 |
| 20260505200420 | 20 | 180 | 0.0 | 0.0 | 0.00 | 0.00 | 0.00 | 34 | 1006.1 |
| 20260505195917 | 20 | 180 | 0.0 | 25.7 | 0.00 | 0.00 | 0.00 | 34 | 1006.0 |
| 20260505195415 | 20 | 225 | 0.0 | 0.0 | 0.00 | 0.00 | 0.00 | 33 | 1005.9 |
| 20260505194913 | 20 | 225 | 0.0 | 0.0 | 0.00 | 0.00 | 0.00 | 33 | 1005.8 |
| 20260505194410 | 20 | 225 | 0.0 | 1.6 | 0.00 | 0.00 | 0.00 | 33 | 1005.7 |
| 20260505193908 | 20 | 225 | 0.0 | 1.6 | 0.00 | 0.00 | 0.00 | 32 | 1005.7 |
| 20260505193405 | 20 | 225 | 0.0 | 0.0 | 0.00 | 0.00 | 0.00 | 32 | 1005.7 |
| 20260505191858 | 21 | 0 | 0.0 | 1.6 | 0.00 | 0.00 | 0.00 | 31 | 1005.7 |
| 20260505191356 | 21 | 0 | 0.0 | 0.0 | 0.00 | 0.00 | 0.00 | 30 | 1005.6 |
| 20260505190853 | 21 | 0 | 0.0 | 20.9 | 0.00 | 0.00 | 0.00 | 30 | 1005.6 |
| 20260505190351 | 21 | 0 | 0.0 | 0.0 | 0.00 | 0.00 | 0.00 | 30 | 1005.5 |
| 20260505185848 | 21 | 0 | 0.0 | 11.3 | 0.00 | 0.00 | 0.00 | 29 | 1005.5 |
| 20260505185346 | 21 | 0 | 0.0 | 0.0 | 0.00 | 0.00 | 0.00 | 29 | 1005.5 |
| 20260505184844 | 22 | 0 | 0.0 | 0.0 | 0.00 | 0.00 | 0.00 | 28 | 1005.4 |
| 20260505184341 | 22 | 0 | 0.0 | 0.0 | 0.00 | 0.00 | 0.00 | 28 | 1005.4 |
| 20260505183336 | 23 | 0 | 0.0 | 33.8 | 0.00 | 0.00 | 0.00 | 27 | 1005.3 |
| 20260505182834 | 23 | 225 | 1.6 | 32.2 | 0.00 | 0.00 | 0.00 | 26 | 1005.2 |
| 20260505182332 | 23 | 225 | 0.0 | 0.0 | 0.00 | 0.00 | 0.00 | 26 | 1005.2 |
| 20260505181829 | 23 | 225 | 0.0 | 0.0 | 0.00 | 0.00 | 0.00 | 25 | 1005.2 |
| 20260505181327 | 24 | 225 | 0.0 | 0.0 | 0.00 | 0.00 | 0.00 | 25 | 1005.1 |
| 20260505180824 | 24 | 225 | 0.0 | 0.0 | 0.00 | 0.00 | 0.00 | 24 | 1005.2 |
| 20260505180322 | 25 | 225 | 0.0 | 0.0 | 0.00 | 0.00 | 0.00 | 24 | 1005.2 |
| 20260505175819 | 25 | 225 | 0.0 | 0.0 | 0.00 | 0.00 | 0.00 | 23 | 1005.2 |
| 20260505175317 | 26 | 225 | 0.0 | 0.0 | 0.00 | 0.00 | 0.00 | 23 | 1005.2 |
| 20260505174815 | 27 | 225 | 0.0 | 0.0 | 0.00 | 0.00 | 0.00 | 22 | 1005.2 |
| 20260505174312 | 27 | 225 | 0.0 | 0.0 | 0.00 | 0.00 | 0.00 | 22 | 1005.2 |
| 20260505173810 | 28 | 225 | 0.0 | 0.0 | 0.00 | 0.00 | 0.00 | 21 | 1005.2 |
| 20260505173307 | 30 | 225 | 0.0 | 0.0 | 0.00 | 0.00 | 0.00 | 21 | 1005.2 |
| 20260505172805 | 31 | 225 | 0.0 | 0.0 | 0.00 | 0.00 | 0.00 | 21 | 1005.2 |
| 20260505172305 | 31 | 225 | 0.0 | 9.7 | 0.00 | 0.00 | 0.00 | 20 | 1005.2 |
| 20260505171800 | 31 | 225 | 0.0 | 1.6 | 0.00 | 0.00 | 0.00 | 20 | 1005.1 |
| 20260505171258 | 31 | 270 | 0.0 | 0.0 | 0.00 | 0.00 | 0.00 | 20 | 1005.1 |
| 20260505170755 | 30 | 270 | 0.0 | 0.0 | 0.00 | 0.00 | 0.00 | 20 | 1005.1 |
| 20260505170253 | 30 | 270 | 0.0 | 33.8 | 0.00 | 0.00 | 0.00 | 19 | 1005.1 |
| 20260505165751 | 32 | 180 | 0.0 | 29.0 | 0.00 | 0.00 | 0.00 | 18 | 1005.2 |
| 20260505165248 | 35 | 180 | 0.0 | 1.6 | 0.00 | 0.00 | 0.00 | 18 | 1005.2 |
| 20260505164746 | 36 | 270 | 0.0 | 0.0 | 0.00 | 0.00 | 0.00 | 17 | 1005.2 |
| 20260505164243 | 36 | 270 | 0.0 | 0.0 | 0.00 | 0.00 | 0.00 | 18 | 1005.3 |
| 20260505162736 | 36 | 225 | 0.0 | 25.7 | 0.00 | 0.00 | 0.00 | 18 | 1005.4 |
| 20260505162234 | 34 | 270 | 0.0 | 4.8 | 0.00 | 0.00 | 0.00 | 18 | 1005.5 |
| 20260505161731 | 32 | 315 | 0.0 | 1.6 | 0.00 | 0.00 | 0.00 | 19 | 1005.6 |
| 20260505161229 | 31 | 270 | 0.0 | 56.3 | 0.00 | 0.00 | 0.00 | 18 | 1005.6 |
| 20260505160726 | 32 | 270 | 0.0 | 1.6 | 0.00 | 0.00 | 0.00 | 17 | 1005.7 |
| 20260505160224 | 34 | 45 | 0.0 | 0.0 | 0.00 | 0.00 | 0.00 | 17 | 1005.7 |
| 20260505153210 | 32 | 225 | 0.0 | 25.7 | 0.00 | 0.00 | 0.00 | 17 | 1005.6 |
| 20260505152707 | 32 | 180 | 0.0 | 29.0 | 0.00 | 0.00 | 0.00 | 17 | 1005.6 |
| 20260505152205 | 33 | 180 | 0.0 | 9.7 | 0.00 | 0.00 | 0.00 | 17 | 1005.6 |
| 20260505151702 | 34 | 180 | 0.0 | 29.0 | 0.00 | 0.00 | 0.00 | 16 | 1005.6 |
| 20260505151200 | 33 | 180 | 0.0 | 3.2 | 0.00 | 0.00 | 0.00 | 17 | 1005.6 |
| 20260505150657 | 32 | 180 | 0.0 | 14.5 | 0.00 | 0.00 | 0.00 | 16 | 1005.6 |
| 20260505150155 | 33 | 180 | 0.0 | 30.6 | 0.00 | 0.00 | 0.00 | 16 | 1005.6 |
| 20260505140628 | 38 | 270 | 0.0 | 8.0 | 0.00 | 0.00 | 0.00 | 15 | 1005.8 |
| 20260505140126 | 40 | 180 | 0.0 | 20.9 | 0.00 | 0.00 | 0.00 | 15 | 1005.9 |